Effective Sunday, March 17, 2024, the National Weather Service National Data Buoy Center will discontinue its Dial-A-Buoy Interactive Voice Response system. For more information, see Service Change Notice 24-06 (PDF).

Station OOUH1 - 1612340 - Honolulu, HI Image indicating link to RSS feed of recent meteorological observations for station OOUH1


Conditions at OOUH1 as of
(11:30 am HAST)
2130 GMT on 02/26/2024:
     

Click on the graph icon in the table below to see a time series plot of the last five days of that observation.

5-day plot - Wind Direction Wind Direction (WDIR):ENE ( 70 deg true )
5-day plot - Wind Speed Wind Speed (WSPD): 8.0 kts
5-day plot - Wind Gust Wind Gust (GST): 15.9 kts
5-day plot - Atmospheric Pressure Atmospheric Pressure (PRES):30.20 in
5-day plot - Air Temperature Air Temperature (ATMP): 73.4 °F
5-day plot - Water Temperature Water Temperature (WTMP): 75.9 °F
5-day plot - Wind Speed at 10 Meters Wind Speed at 10 meters (WSPD10M): 9.7 kts
5-day plot - Wind Speed at 20 Meters Wind Speed at 20 meters (WSPD20M): 9.7 kts
5-day plot -  Wind Speed, Wind Gust and Atmospheric Pressure Combined plot of Wind Speed, Gust, and Air Pressure
NOS Water Level Observation Network Water Level
Previous observations
TIME
(HAST)
5-day plot - Wind Direction
WDIR
 
5-day plot - Wind Speed
WSPD
kts
5-day plot - Wind Gust
GST
kts
5-day plot - Wave Height
WVHT
ft
5-day plot - Dominant Wave Period
DPD
sec
5-day plot - Average Wave Period
APD
sec
5-day plot - Mean Wave Direction
MWD
 
5-day plot - Atmospheric Pressure
PRES
in
5-day plot - Pressure Tendency
PTDY
in
5-day plot - Air Temperature
ATMP
°F
5-day plot - Water Temperature
WTMP
°F
5-day plot - Dew Point
DEWP
°F
5-day plot - Salinity
SAL
psu
5-day plot - Visibility
VIS
nmi
5-day plot - Tide (above MLLW)
TIDE
ft
2024-02-26 11:24 am E 8.0 17.1----30.19- 75.0 75.9----
2024-02-26 11:18 am E 6.0 17.1----30.19- 75.2 75.7----
2024-02-26 11:12 amENE 8.0 15.0----30.20- 75.0 75.7----
2024-02-26 11:06 am E 7.0 18.1----30.20- 74.7 75.7----
2024-02-26 11:00 am E 6.0 19.0----30.20+0.01 74.1 75.7----
2024-02-26 10:54 am E 7.0 24.1----30.21- 74.7 75.7----
2024-02-26 10:48 amENE 8.9 15.0----30.21-- 75.7----
2024-02-26 10:42 am NE 6.0 13.0----30.21-- 75.7----
2024-02-26 10:36 amENE 5.1 18.1----30.21-- 75.7----
2024-02-26 10:30 am E 7.0 17.1----30.21- 73.4 75.7----
2024-02-26 10:24 amENE 5.1 12.0----30.21- 73.4 75.7----
2024-02-26 10:18 amENE 5.1 15.9----30.21- 73.4-----
2024-02-26 10:12 am E 5.1 13.0----30.21- 73.6-----
2024-02-26 10:06 amESE 8.9 14.0----30.21- 73.2-----
2024-02-26 10:00 amENE 7.0 14.0----30.21+0.03 73.6 75.7----
2024-02-26 09:54 amENE 7.0 15.0----30.21- 73.6 75.7----
2024-02-26 09:48 amENE 6.0 13.0----30.21- 73.9 75.7----
2024-02-26 09:42 am E 6.0 13.0----30.21- 73.8 75.7----
2024-02-26 09:36 am E 4.1 12.0----30.21- 74.1 75.7----
2024-02-26 09:30 am E 8.0 14.0----30.21- 73.4 75.7----
2024-02-26 09:24 amENE 8.0 14.0----30.21- 73.0 75.7----
2024-02-26 09:18 amENE 6.0 13.0----30.21- 73.6 75.6----
2024-02-26 09:12 amENE 6.0 12.0----30.21- 73.2 75.7----
2024-02-26 09:06 amENE 8.0 15.0----30.21- 72.9 75.7----
2024-02-26 09:00 am E 6.0 15.0----30.21+0.05 72.7 75.7----
2024-02-26 08:54 am NE 7.0 12.0----30.20- 72.5 75.7----
2024-02-26 08:48 am E 5.1 14.0----30.20- 72.3 75.7----
2024-02-26 08:42 amENE 9.9 15.0----30.20- 71.8 75.7----
2024-02-26 08:36 am NE 7.0 13.0----30.20- 72.3 75.7----
2024-02-26 08:30 am E 5.1 13.0----30.20- 72.1 75.7----
2024-02-26 08:24 am NE 8.0 14.0----30.19- 71.6 75.7----
2024-02-26 08:18 amENE 6.0 9.9----30.20- 71.8 75.7----
2024-02-26 08:12 amENE 6.0 15.0----30.20- 71.8 75.6----
2024-02-26 08:06 amENE 6.0 11.1----30.20- 71.6 75.6----
2024-02-26 08:00 am E 2.9 13.0----30.19+0.04 71.6 75.6----
2024-02-26 07:54 am E 6.0 14.0----30.19- 71.4 75.7----
2024-02-26 07:48 am E 4.1 7.0----30.19- 71.6 75.6----
2024-02-26 07:42 amENE 4.1 8.9----30.19- 70.9 75.6----
2024-02-26 07:36 am E 4.1 9.9----30.19- 70.9 75.7----
2024-02-26 07:30 am E 4.1 9.9----30.19- 71.2 75.7----
2024-02-26 07:24 am E 5.1 9.9----30.19- 71.1 75.7----
2024-02-26 07:18 amENE 4.1 8.9----30.19- 71.1 75.7----
2024-02-26 07:12 amENE 9.9 15.9----30.19- 71.2 75.7----
2024-02-26 07:06 am E 6.0 14.0----30.19- 71.2 75.7----
2024-02-26 07:00 amENE 5.1 11.1----30.18+0.04 71.8 75.7----
2024-02-26 06:54 amENE 6.0 11.1----30.18- 71.8 75.7----
2024-02-26 06:48 am E 6.0 11.1----30.18- 72.0 75.7----
2024-02-26 06:42 am E 5.1 15.0----30.18- 71.8 75.7----
2024-02-26 06:36 am E 2.9 8.0----30.18- 71.6 75.7----
2024-02-26 06:30 amENE 5.1 12.0----30.17- 71.8 75.7----
2024-02-26 06:24 amENE 5.1 9.9----30.17- 71.8 75.9----
2024-02-26 06:18 amENE 6.0 12.0----30.17- 71.8 75.9----
2024-02-26 06:12 amENE 2.9 9.9----30.16- 71.4 75.9----
2024-02-26 06:06 am NE 4.1 11.1----30.16- 71.4 75.9----
2024-02-26 06:00 amENE 2.9 9.9----30.16+0.01 71.2 75.9----
2024-02-26 05:54 amENE 5.1 9.9----30.16- 71.4 75.9----
2024-02-26 05:48 amENE 6.0 12.0----30.16- 71.4 75.9----
2024-02-26 05:42 amENE 5.1 11.1----30.15- 71.4 75.9----
2024-02-26 05:36 am E 4.1 11.1----30.15- 71.2 75.9----
2024-02-26 05:30 am E 7.0 17.1----30.15- 71.2 75.9----
2024-02-26 05:24 am NE 8.0 15.9----30.15- 71.2 75.9----
2024-02-26 05:18 amENE 7.0 15.9----30.15- 71.2 75.9----
2024-02-26 05:12 amENE 8.0 14.0----30.15- 71.2 75.9----
2024-02-26 05:06 amENE 5.1 12.0----30.15- 71.1 75.9----
2024-02-26 05:00 amENE 4.1 9.9----30.15+0.00 70.9 75.9----
2024-02-26 04:54 amENE 4.1 9.9----30.14- 70.9 75.9----
2024-02-26 04:48 am E 4.1 9.9----30.14- 71.1 75.9----
2024-02-26 04:42 am NE 5.1 13.0----30.15- 71.2 75.9----
2024-02-26 04:36 amENE 5.1 11.1----30.15- 71.1 75.9----
2024-02-26 04:30 am E 5.1 8.0----30.14- 71.1 75.9----
2024-02-26 04:24 amENE 6.0 12.0----30.14- 71.1 75.9----
2024-02-26 04:18 amENE 8.0 17.1----30.14- 71.1 75.7----
2024-02-26 04:12 am NE 5.1 9.9----30.14- 70.9 75.7----
2024-02-26 04:06 amENE 7.0 12.0----30.14- 70.9 75.7----
2024-02-26 04:00 amENE 7.0 14.0----30.14-0.03 71.1 75.7----
2024-02-26 03:54 amENE 8.0 14.0----30.14- 70.7 75.7----
2024-02-26 03:48 amENE 5.1 11.1----30.14- 70.3 75.7----
2024-02-26 03:42 amENE 4.1 13.0----30.14- 70.5 75.7----
2024-02-26 03:36 amENE 4.1 11.1----30.14- 70.5 75.7----
2024-02-26 03:30 amENE 6.0 11.1----30.14- 70.5 75.7----
2024-02-26 03:24 amENE 5.1 8.0----30.15- 70.5 75.7----
2024-02-26 03:18 am E 1.9 7.0----30.15- 70.5 75.7----
2024-02-26 03:12 am E 5.1 14.0----30.15- 70.9 75.7----
2024-02-26 03:06 amESE 4.1 7.0----30.15- 70.7 75.7----
2024-02-26 03:00 amENE 4.1 11.1----30.14-0.04 70.7 75.7----
2024-02-26 02:54 amENE 5.1 11.1----30.15- 70.7 75.7----
2024-02-26 02:48 am E 4.1 12.0----30.15- 70.9 75.7----
2024-02-26 02:42 am NE 8.9 15.0----30.15- 71.1 75.7----
2024-02-26 02:36 amENE 6.0 11.1----30.15- 71.1 75.7----
2024-02-26 02:30 am E 5.1 11.1----30.15- 71.1 75.7----
2024-02-26 02:24 am NE 5.1 9.9----30.15- 70.9 75.7----
2024-02-26 02:18 amENE 2.9 8.9----30.15- 70.9 75.7----
2024-02-26 02:12 am E 5.1 8.0----30.15- 70.9 75.7----
2024-02-26 02:06 am E 1.0 5.1----30.16- 70.9 75.7----
2024-02-26 02:00 amENE 6.0 9.9----30.16-0.03 71.2 75.9----
2024-02-26 01:54 amENE 5.1 11.1----30.16- 71.1 75.9----
2024-02-26 01:48 amENE 4.1 15.0----30.16- 71.1 75.9----
2024-02-26 01:42 amENE 6.0 12.0----30.16- 71.2 75.9----
2024-02-26 01:36 amENE 5.1 11.1----30.17- 71.2 75.9----
2024-02-26 01:30 amENE 8.9 15.0----30.17- 71.4 75.9----
2024-02-26 01:24 amENE 6.0 9.9----30.17- 71.1 75.9----
2024-02-26 01:18 am E 5.1 12.0----30.17- 71.2 75.9----
2024-02-26 01:12 amENE 2.9 13.0----30.17- 71.1 75.9----
2024-02-26 01:06 amENE 8.0 15.0----30.17- 71.2 75.9----
2024-02-26 01:00 amENE 2.9 11.1----30.18+0.00 70.7 75.9----
2024-02-26 12:54 am E 4.1 11.1----30.17- 70.3 75.9----
2024-02-26 12:48 am NE 6.0 9.9----30.17- 70.3 75.9----
2024-02-26 12:42 amENE 6.0 13.0----30.18- 70.2 75.9----
2024-02-26 12:36 amENE 6.0 15.0----30.18- 69.8 75.9----
2024-02-26 12:30 am NE 5.1 11.1----30.18- 69.4 75.9----
2024-02-26 12:24 amENE 7.0 14.0----30.18- 70.2 75.9----
2024-02-26 12:18 am E 8.0 17.1----30.18- 70.7 75.9----
2024-02-26 12:12 amENE 6.0 9.9----30.18- 69.8 75.9----
2024-02-26 12:06 amENE 6.0 12.0----30.18- 69.4 75.9----
2024-02-26 12:00 am NE 5.1 8.9----30.19+0.02 69.4 75.9----
2024-02-25 11:54 pmENE 5.1 8.9----30.19- 69.4 75.9----
2024-02-25 11:48 pmENE 5.1 8.9----30.19- 69.6 75.9----
2024-02-25 11:42 pm E 4.1 8.9----30.19- 70.2 75.9----
2024-02-25 11:36 pm E 4.1 14.0----30.18- 70.0 75.9----
2024-02-25 11:30 pm E 6.0 13.0----30.19- 69.4 75.9----
2024-02-25 11:24 pm E 8.9 14.0----30.19- 69.4 75.9----
2024-02-25 11:18 pm E 7.0 14.0----30.19- 69.6 75.9----
2024-02-25 11:12 pm E 5.1 8.9----30.19- 69.3 75.9----
2024-02-25 11:06 pm E 6.0 12.0----30.19- 70.2 75.9----
2024-02-25 11:00 pm NE 5.1 8.9----30.19+0.04 70.7 75.9----
2024-02-25 10:54 pm NE 4.1 8.9----30.18- 70.7 75.9----
2024-02-25 10:48 pm NE 6.0 14.0----30.18- 70.9 75.9----
2024-02-25 10:42 pm NE 5.1 12.0----30.18- 71.1 75.9----
2024-02-25 10:36 pm NE 8.0 14.0----30.19- 71.1 75.9----
2024-02-25 10:30 pmENE 7.0 12.0----30.19- 71.4 75.9----
2024-02-25 10:24 pmENE 1.9 14.0----30.18- 71.4 75.9----
2024-02-25 10:18 pmENE 5.1 12.0----30.18- 71.2 75.9----
2024-02-25 10:12 pm E 5.1 11.1----30.18- 71.2 75.9----
2024-02-25 10:06 pm E 5.1 12.0----30.18- 71.2 75.9----
2024-02-25 10:00 pm NE 6.0 11.1----30.18+0.05 71.2 75.9----
2024-02-25 09:54 pm NE 5.1 8.0----30.18- 71.4 75.9----
2024-02-25 09:48 pmENE 4.1 12.0----30.18- 71.6 75.9----
2024-02-25 09:42 pm E 6.0 9.9----30.18- 71.8 75.9----
2024-02-25 09:36 pm NE 7.0 15.9----30.18- 71.6 75.9----
2024-02-25 09:30 pmENE 5.1 14.0----30.18- 71.6 75.9----
2024-02-25 09:24 pm NE 8.9 15.0----30.17- 71.6 75.9----
2024-02-25 09:18 pmENE 8.0 12.0----30.17- 71.4 75.9----
2024-02-25 09:12 pm E 5.1 11.1----30.17- 71.4 75.9----
2024-02-25 09:06 pmENE 2.9 9.9----30.16- 70.9 75.9----
2024-02-25 09:00 pm E 4.1 7.0----30.16+0.06 70.7 75.9----
2024-02-25 08:54 pmENE 4.1 8.0----30.16- 70.0 75.9----
2024-02-25 08:48 pmENE 5.1 11.1----30.16- 70.0 75.9----
2024-02-25 08:42 pm E 6.0 15.9----30.16- 70.2 75.9----
2024-02-25 08:36 pmENE 7.0 15.0----30.16- 70.7 75.9----
2024-02-25 08:30 pmENE 6.0 12.0----30.16- 70.5 75.9----
2024-02-25 08:24 pmENE 6.0 14.0----30.16- 71.4 75.9----
2024-02-25 08:18 pm E 4.1 9.9----30.15- 71.6 75.9----
2024-02-25 08:12 pmENE 5.1 8.0----30.15- 71.1 75.9----
2024-02-25 08:06 pmENE 2.9 7.0----30.15- 71.1 75.9----
2024-02-25 08:00 pmENE 2.9 7.0----30.14+0.06 71.1 75.9----
2024-02-25 07:54 pm NE 5.1 8.9----30.14- 70.9 75.9----
2024-02-25 07:48 pm E 5.1 9.9----30.14- 70.9 75.9----
2024-02-25 07:42 pmENE 4.1 11.1----30.14- 70.7 75.9----
2024-02-25 07:36 pmESE 6.0 8.9----30.14- 70.9 75.9----
2024-02-25 07:30 pm E 5.1 8.9----30.14- 70.7 75.9----
2024-02-25 07:24 pmENE 6.0 12.0----30.14- 70.5 75.9----
2024-02-25 07:18 pmENE 5.1 9.9----30.13- 70.7 75.9----
2024-02-25 07:12 pm E 5.1 11.1----30.13- 71.1 75.9----
2024-02-25 07:06 pm E 5.1 12.0----30.13- 70.9 75.9----
2024-02-25 07:00 pm E 7.0 11.1----30.12+0.05 70.9 75.9----
2024-02-25 06:54 pm E 4.1 7.0----30.12- 72.0 75.9----
2024-02-25 06:48 pm NE 4.1 7.0----30.12- 71.8 75.9----
2024-02-25 06:42 pm NE 4.1 8.0----30.12- 71.8 75.9----
2024-02-25 06:36 pm E 2.9 8.0----30.12- 72.0 75.9----
2024-02-25 06:30 pmENE 4.1 9.9----30.12- 71.8 75.9----
2024-02-25 06:24 pm E 4.1 9.9----30.11- 72.5 75.9----
2024-02-25 06:18 pmESE 7.0 15.0----30.11- 72.1 75.9----
2024-02-25 06:12 pmENE 6.0 9.9----30.11- 72.7 75.9----
2024-02-25 06:06 pmENE 4.1 8.9----30.11- 72.7 75.9----
2024-02-25 06:00 pmENE 5.1 11.1----30.11+0.04 73.0 75.9----
2024-02-25 05:54 pm NE 4.1 11.1----30.11- 72.9 75.9----
2024-02-25 05:48 pm NE 6.0 15.0----30.11- 73.4 75.9----
2024-02-25 05:42 pm E 6.0 12.0----30.11- 73.4 75.9----
2024-02-25 05:36 pm NE 5.1 14.0----30.10- 73.2 75.9----
2024-02-25 05:30 pm E 5.1 8.9----30.10- 73.2 75.9----
2024-02-25 05:24 pm E 4.1 13.0----30.09- 73.8 75.9----
2024-02-25 05:18 pm E 4.1 11.1----30.09- 73.6 75.9----
2024-02-25 05:12 pm NE 5.1 11.1----30.09- 73.4 75.9----
2024-02-25 05:06 pm NE 7.0 11.1----30.09- 72.9 75.9----
2024-02-25 05:00 pmENE 5.1 13.0----30.09- 72.9 75.7----
2024-02-25 04:54 pm E 7.0 14.0----30.09- 73.6 75.9----
2024-02-25 04:48 pm NE 7.0 12.0----30.09- 74.1-----
2024-02-25 04:42 pm NE 6.0 13.0----30.08- 74.3-----
2024-02-25 04:36 pm NE 4.1 11.1----30.08- 73.6-----
2024-02-25 04:30 pm NE 6.0 13.0----30.08- 73.0 75.7----
2024-02-25 04:24 pmENE 8.0 14.0----30.08- 73.2 75.7----
2024-02-25 04:18 pmENE 9.9 17.1----30.08- 73.8 75.7----
2024-02-25 04:12 pmENE 5.1 9.9----30.08- 75.2 75.7----
2024-02-25 04:06 pmENE 8.0 12.0----30.08- 74.7 75.9----
2024-02-25 04:00 pmENE 7.0 9.9----30.07-0.02 74.8 75.9----
2024-02-25 03:54 pm E 4.1 9.9----30.07- 75.2 75.9----
2024-02-25 03:48 pm E 6.0 12.0----30.07- 75.2 75.7----
2024-02-25 03:42 pm NE 2.9 9.9----30.07- 75.4 75.9----
2024-02-25 03:36 pmENE 5.1 12.0----30.07- 74.8 75.7----
2024-02-25 03:30 pmENE 6.0 15.0----30.07- 74.8 75.7----
2024-02-25 03:24 pmENE 8.9 18.1----30.07- 74.5 75.7----
2024-02-25 03:18 pmENE 8.0 15.0----30.07- 74.3 75.7----
2024-02-25 03:12 pmENE 5.1 8.9----30.07- 74.8 75.7----
2024-02-25 03:06 pm NE 4.1 8.0----30.07- 74.8 75.7----
2024-02-25 03:00 pm NE 6.0 11.1----30.07-0.05- 75.7----
2024-02-25 02:54 pm E 5.1 13.0----30.07-- 75.7----
2024-02-25 02:48 pm E 5.1 11.1----30.07- 75.6 75.7----
2024-02-25 02:42 pmENE 6.0 12.0----30.07- 75.9 75.7----
2024-02-25 02:36 pmENE 7.0 11.1----30.07- 75.7 75.7----
2024-02-25 02:30 pm NE 7.0 12.0----30.07- 75.6 75.7----
2024-02-25 02:24 pm NE 8.0 14.0----30.07- 75.6 75.7----
2024-02-25 02:18 pmENE 8.9 15.9----30.07-- 75.7----
2024-02-25 02:12 pmENE 8.9 14.0----30.07-- 75.7----
2024-02-25 02:06 pm NE 5.1 12.0----30.07-- 75.7----
2024-02-25 02:00 pm NE 5.1 15.9------- 75.7----
2024-02-25 01:54 pmENE 6.0 13.0------- 75.7----
2024-02-25 01:48 pm NE 8.9 18.1----30.08- 75.6 75.7----
2024-02-25 01:42 pm E 7.0 13.0----30.08- 75.2 75.7----
2024-02-25 01:36 pmENE 6.0 14.0----30.08- 75.4 75.7----
2024-02-25 01:30 pm E 7.0 17.1----30.09- 75.0 75.6----
2024-02-25 01:24 pm NE 7.0 11.1----30.09- 75.6 75.7----
2024-02-25 01:18 pmENE 5.1 12.0----30.09- 75.6 75.7----
2024-02-25 01:12 pmENE 6.0 12.0----30.09- 75.6 75.7----
2024-02-25 01:00 pm E 7.0 14.0----30.10- 74.7 75.7----
2024-02-25 12:54 pmESE 7.0 12.0----30.10- 75.7 75.7----
2024-02-25 12:48 pm E 5.1 13.0----30.10- 75.2 75.7----
2024-02-25 12:42 pmENE 4.1 12.0----30.10- 75.4 75.7----
2024-02-25 12:36 pm NE 7.0 18.1----30.10- 74.7 75.7----
2024-02-25 12:30 pm NE 5.1 17.1----30.11- 75.2 75.7----
2024-02-25 12:24 pm E 8.0 15.9----30.11- 74.5 75.7----
2024-02-25 12:18 pmENE 7.0 12.0----30.11- 73.9 75.7----
2024-02-25 12:12 pm NE 6.0 9.9----30.11- 73.9 75.7----
2024-02-25 12:06 pm NE 8.0 14.0----30.11- 73.8 75.7----
2024-02-25 12:00 pm E 6.0 14.0----30.12-0.01 73.8 75.7----
2024-02-25 11:54 amENE 6.0 15.9----30.12- 74.1 75.7----